Miscellaneous Local Product
Issued by NWS Hastings, NE

Home | Current Version | Previous Version | Graphics & Text | Print | Product List | Glossary On
Versions: 1 2 3 4 5 6 7 8 9 10 11 12 13 14 15 16 17 18 19 20 21 22 23 24 25 26 27 28 29 30 31 32 33 34 35 36 37 38 39 40 41 42 43 44 45 46 47 48 49 50
633
AXUS43 KGID 131402
MISGRI

GID CWA HOURLY WEATHER ROUNDUP
NATIONAL WEATHER SERVICE HASTINGS NE
800 AM CST SAT FEB 13 2016

NOTE: "FAIR" INDICATES FEW OR NO CLOUDS BELOW 12,000 FEET WITH NO
SIGNIFICANT WEATHER AND/OR OBSTRUCTIONS TO VISIBILITY.

...SOUTH CENTRAL NEBRASKA...

CITY           SKY/WX    TMP DP  RH WIND       PRES   REMARKS
GRAND ISLAND   CLOUDY    14   6  70 SE13      30.46F WCI   0
HASTINGS       CLOUDY    15   7  70 SE12      30.43F WCI   2
KEARNEY        CLOUDY    16   9  73 SE12      30.40F WCI   3
ORD            CLOUDY    15   8  73 SE14      30.39F WCI   0
YORK           CLOUDY    14   7  73 SE10      30.49S WCI   1
AURORA         CLOUDY    14   7  73 SE14      30.46F WCI   0
LEXINGTON      CLOUDY    20  15  80 SE13      30.36F WCI   8
HOLDREGE       CLOUDY    18  15  88 SE13      30.39S WCI   5
HEBRON         CLOUDY    18   9  66 E7        30.50F WCI   9

...NEBRASKA PANHANDLE...

CITY           SKY/WX    TMP DP  RH WIND       PRES   REMARKS
CHADRON        CLOUDY    33  29  85 S8        30.04F WCI  26
ALLIANCE       CLOUDY    31  30  96 S15       30.07F FOG     WCI  20
SCOTTSBLUFF    CLOUDY    30  28  92 SE9       30.07F WCI  22
SIDNEY         CLOUDY    29  29 100 S14       30.11F WCI  18

...WESTERN AND NORTH CENTRAL NEBRASKA...

CITY           SKY/WX    TMP DP  RH WIND       PRES   REMARKS
VALENTINE      CLOUDY    23  21  92 S18       30.21F WCI   9
AINSWORTH      CLOUDY    19  15  86 S20G26    30.25F WCI   3
ONEILL         CLOUDY    15  10  82 S13       30.39F WCI   1
BROKEN BOW     CLOUDY    17  11  77 S18       30.33F WCI   1
IMPERIAL       CLOUDY    26  24  92 S17       30.22F WCI  13
NORTH PLATTE   CLOUDY    21  19  92 SE12      30.27F WCI   9
MCCOOK         CLOUDY    21  19  92 SE15      30.33F WCI   8

...EASTERN NEBRASKA...

CITY           SKY/WX    TMP DP  RH WIND       PRES   REMARKS
NORFOLK        CLOUDY    11   3  70 SE12      30.47F WCI  -3
SO SIOUX CITY  CLOUDY     7  -3  64 SE12      30.58F WCI  -8
TEKAMAH        CLOUDY     8   0  69 E10       30.59F WCI  -6
COLUMBUS       CLOUDY    12   0  57 E9        30.50F WCI   0
ALBION         CLOUDY    13   8  80 SE10      30.46S WCI   0
OMAHA EPPLEY   CLOUDY    10   1  67 E9        30.61F WCI  -3
OFFUTT AFB     CLOUDY    10   1  67 E8        30.59F WCI  -1
MILLARD        CLOUDY    11   1  63 E3        30.59F
LINCOLN        CLOUDY    16   6  65 SE9       30.56S WCI   4
NEBRASKA CITY  CLOUDY    13   3  63 E7        30.58S WCI   3
BEATRICE       CLOUDY    16   2  55 SE7       30.54F WCI   6
FALLS CITY     CLOUDY    15   4  61 E8        30.59S WCI   4

...NORTHERN KANSAS...

CITY           SKY/WX    TMP DP  RH WIND       PRES   REMARKS
GOODLAND       FOG       25  24  96 S22       30.23S VSB 1/2 WCI  10
HILL CITY      CLOUDY    20  15  81 SE14      30.40F WCI   7
NORTON         CLOUDY    19  12  73 SE13      30.38S WCI   7
PHILLIPSBURG   CLOUDY    21  16  79 SE13      30.44S WCI   9
SMITH CENTER   CLOUDY    19  14  79 E10       30.46S WCI   8
BELOIT         CLOUDY    19   7  58 E8        30.49S WCI   9
HAYS           CLOUDY    21   9  58 SE13      30.42F WCI   9
RUSSELL        CLOUDY    20  16  84 SE10      30.43S WCI   9
CONCORDIA      CLOUDY    19   6  57 E10       30.49F WCI   7
SALINA         CLOUDY    21   9  59 E8        30.51S WCI  11
TOPEKA         CLOUDY    20   2  45 E10       30.59F WCI   9



USA.gov is the U.S. government's official web portal to all federal, state and local government web resources and services.